Weather History for NW Arkansas Airport, AR

Change the Weather History Date:

Monday, November 26, 2012

  Actual Average Record
Temperature  
Mean Temperature 44 °F -  
Max Temperature 52 °F - - ()
Min Temperature 33 °F - - ()
Degree Days  
Heating Degree Days 22    
Moisture  
Dew Point 39 °F    
Average Humidity 85    
Maximum Humidity 100    
Minimum Humidity 62    
Precipitation  
Precipitation 0.02 in - - ()
Sea Level Pressure  
Sea Level Pressure 30.08 in    
Wind  
Wind Speed 7 mph (NNE)    
Max Wind Speed 22 mph    
Max Gust Speed 30 mph    
Visibility 8 miles    
Events Rain    
T = Trace of Precipitation, MM = Missing Value Source: NWS Daily Summary

Daily Weather History Graph

Daily Weather History Graph

Search for Another Location

Airport:

Trip Planner

Search our weather history database for the weather conditions in past years. The results will help you decide how hot, cold, wet, or windy it might be!

Date:

Astronomy

Nov. 26, 2012 Rise Set
Actual Time 7:05 AM CST 5:03 PM CST
Civil Twilight 6:37 AM CST 5:31 PM CST
Nautical Twilight 6:06 AM CST 6:03 PM CST
Astronomical Twilight 5:35 AM CST 6:34 PM CST
Moon 3:54 PM CST 5:18 AM CST
Length of Visible Light 10h 53m
Length of Day
9h 57m
Waxing Gibbous, 97% of the Moon is Illuminated
Nov 26
Waxing Gibbous
Nov 28
Full
Dec 6
Last Quarter
Dec 13
New
Dec 19
First Quarter

Hourly Weather History & Observations

Time (CST) Temp. Windchill Dew Point Humidity Pressure Visibility Wind Dir Wind Speed Gust Speed Precip Events Conditions
12:53 AM 42.1 °F - 35.1 °F 76% 29.92 in 10.0 mi Calm Calm - N/A   Clear
1:53 AM 42.1 °F - 37.0 °F 82% 29.91 in 10.0 mi Calm Calm - N/A   Scattered Clouds
2:53 AM 42.1 °F - 37.0 °F 82% 29.91 in 10.0 mi Calm Calm - N/A   Scattered Clouds
3:53 AM 41.0 °F 39.0 °F 37.0 °F 86% 29.91 in 10.0 mi NNE 3.5 mph - N/A   Clear
4:53 AM 41.0 °F 39.0 °F 37.0 °F 86% 29.91 in 10.0 mi NNE 3.5 mph - N/A   Partly Cloudy
5:53 AM 45.0 °F 43.5 °F 39.9 °F 82% 29.93 in 10.0 mi ENE 3.5 mph - N/A   Overcast
6:53 AM 46.9 °F - 42.1 °F 83% 29.95 in 10.0 mi NE 3.5 mph - N/A   Overcast
7:53 AM 48.9 °F - 44.1 °F 83% 29.97 in 9.0 mi NE 3.5 mph - N/A   Overcast
8:53 AM 51.1 °F - 45.0 °F 80% 29.98 in 10.0 mi ENE 3.5 mph - N/A   Overcast
9:25 AM 51.8 °F - 44.6 °F 76% 29.99 in 10.0 mi ENE 3.5 mph - N/A   Overcast
9:53 AM 52.0 °F - 45.0 °F 77% 30.00 in 10.0 mi ENE 3.5 mph - N/A   Overcast
10:49 AM 50.0 °F - 46.4 °F 87% 30.02 in 4.0 mi North 8.1 mph - 0.00 in Rain Light Rain
10:53 AM 50.0 °F - 46.9 °F 89% 30.03 in 4.0 mi North 8.1 mph - 0.00 in Rain Light Rain
11:53 AM 48.0 °F - 46.0 °F 93% 30.03 in 5.0 mi NNE 11.5 mph - 0.00 in   Overcast
12:15 PM 46.4 °F 41.9 °F 46.4 °F 100% 30.02 in 3.0 mi North 9.2 mph - N/A   Overcast
12:46 PM 46.4 °F 40.4 °F 46.4 °F 100% 30.03 in 4.0 mi North 13.8 mph - N/A   Overcast
12:53 PM 46.0 °F 39.9 °F 45.0 °F 96% 30.04 in 4.0 mi NNE 13.8 mph - N/A   Overcast
1:25 PM 44.6 °F 38.4 °F 44.6 °F 100% 30.03 in 2.0 mi North 12.7 mph - N/A   Overcast
1:33 PM 44.6 °F 38.1 °F 44.6 °F 100% 30.03 in 1.5 mi NNE 13.8 mph - 0.00 in Rain Light Rain
1:53 PM 42.1 °F 34.5 °F 42.1 °F 100% 30.06 in 1.5 mi North 15.0 mph - 0.01 in Rain Light Rain
2:31 PM 39.2 °F 30.5 °F 39.2 °F 100% 30.07 in 2.0 mi North 16.1 mph 23.0 mph 0.01 in   Overcast
2:46 PM 39.2 °F 31.2 °F 39.2 °F 100% 30.08 in 3.0 mi NNE 13.8 mph - 0.01 in   Overcast
2:53 PM 39.9 °F 31.4 °F 39.0 °F 97% 30.09 in 3.0 mi North 16.1 mph 21.9 mph 0.01 in   Overcast
3:18 PM 39.2 °F 30.8 °F 37.4 °F 93% 30.09 in 10.0 mi NNE 15.0 mph - N/A   Overcast
3:53 PM 41.0 °F 32.5 °F 36.0 °F 82% 30.14 in 10.0 mi NNE 17.3 mph 25.3 mph N/A   Overcast
4:53 PM 41.0 °F 31.4 °F 34.0 °F 76% 30.18 in 10.0 mi NNE 21.9 mph 29.9 mph N/A   Overcast
5:53 PM 41.0 °F 32.2 °F 34.0 °F 76% 30.22 in 10.0 mi NE 18.4 mph 26.5 mph 0.00 in   Overcast
6:00 PM 41.0 °F 33.5 °F 33.8 °F 76% 30.22 in 10.0 mi NE 13.8 mph 26.5 mph N/A   Overcast
6:53 PM 41.0 °F 33.5 °F 28.9 °F 62% 30.25 in 10.0 mi NE 13.8 mph - 0.00 in   Overcast
7:53 PM 39.0 °F 30.3 °F 28.9 °F 67% 30.27 in 10.0 mi NNE 16.1 mph - N/A   Partly Cloudy
8:53 PM 37.9 °F 29.6 °F 28.0 °F 68% 30.30 in 10.0 mi NNE 13.8 mph - N/A   Clear
9:53 PM 37.0 °F 29.3 °F 28.0 °F 70% 30.32 in 10.0 mi NNE 11.5 mph - N/A   Clear
10:53 PM 35.1 °F 26.4 °F 28.0 °F 76% 30.33 in 10.0 mi NNE 12.7 mph - N/A   Clear
11:53 PM 33.1 °F 24.4 °F 27.0 °F 78% 30.35 in 10.0 mi NNE 11.5 mph - N/A   Clear